Weather History for Saginaw, MI

Change the Weather History Date:

Saturday, December 10, 2011

  Actual Average Record
Temperature  
Mean Temperature 22 °F 29 °F  
Max Temperature 28 °F 35 °F 46 °F (1999)
Min Temperature 15 °F 23 °F 2 °F (2013)
Degree Days  
Heating Degree Days 44    
Month to date heating degree days  
Since 1 July heating degree days  
Cooling Degree Days 0    
Month to date cooling degree days  
Year to date cooling degree days  
Moisture  
Dew Point 11 °F    
Average Humidity 63    
Maximum Humidity 77    
Minimum Humidity 47    
Precipitation  
Precipitation 0.00 in 0.06 in 0.27 in (2003)
Month to date precipitation 0.67  
Year to date precipitation 30.35  
Snow  
Snow 0.00 in - - ()
Month to date snowfall  
Since 1 July snowfall  
Snow Depth -    
Sea Level Pressure  
Sea Level Pressure 30.42 in    
Wind  
Wind Speed 10 mph (WSW)    
Max Wind Speed 21 mph    
Max Gust Speed 26 mph    
Visibility 10 miles    
Events      
T = Trace of Precipitation, MM = Missing Value Source: NWS Daily Summary

Daily Weather History Graph

Daily Weather History Graph

Search for Another Location

Airport:

Trip Planner

Search our weather history database for the weather conditions in past years. The results will help you decide how hot, cold, wet, or windy it might be!

Date:

Astronomy

Dec. 10, 2011 Rise Set
Actual Time 7:58 AM EST 4:59 PM EST
Civil Twilight 7:25 AM EST 5:32 PM EST
Nautical Twilight 6:49 AM EST 6:08 PM EST
Astronomical Twilight 6:14 AM EST 6:43 PM EST
Moon 5:12 PM EST (12/10) 7:58 AM EST (12/10)
Length of Visible Light 10h 06m
Length of Day
9h 01m
Full, 100% of the Moon is Illuminated
Dec 10
Full
Dec 17
Last Quarter
Dec 24
New
Jan 1
First Quarter
Jan 9
Full

Hourly Weather History & Observations

Time (EST) Temp. Windchill Dew Point Humidity Pressure Visibility Wind Dir Wind Speed Gust Speed Precip Events Conditions
12:53 AM 19.0 °F 12.3 °F 10.9 °F 71% 30.36 in 10.0 mi WSW 4.6 mph - N/A   Clear
1:53 AM 18.0 °F 8.7 °F 10.9 °F 74% 30.36 in 10.0 mi WSW 6.9 mph - N/A   Clear
2:53 AM 17.6 °F 6.4 °F 10.4 °F 73% 30.34 in 10.0 mi WSW 9.2 mph - N/A   Clear
3:53 AM 17.1 °F 5.8 °F 10.0 °F 74% 30.38 in 10.0 mi West 9.2 mph - N/A   Clear
4:53 AM 17.1 °F 5.0 °F 9.0 °F 71% 30.39 in 10.0 mi West 10.4 mph - N/A   Clear
5:53 AM 16.0 °F 6.3 °F 9.0 °F 74% 30.39 in 10.0 mi WSW 6.9 mph - N/A   Clear
6:53 AM 15.1 °F 5.2 °F 9.0 °F 77% 30.42 in 10.0 mi WSW 6.9 mph - N/A   Clear
7:53 AM 15.1 °F 6.4 °F 9.0 °F 77% 30.43 in 10.0 mi WSW 5.8 mph - N/A   Clear
8:53 AM 17.1 °F 7.6 °F 10.9 °F 77% 30.45 in 10.0 mi SW 6.9 mph - N/A   Clear
9:53 AM 19.9 °F 8.6 °F 12.0 °F 71% 30.47 in 10.0 mi West 10.4 mph - N/A   Clear
10:53 AM 24.1 °F 13.7 °F 12.9 °F 62% 30.48 in 10.0 mi West 10.4 mph - N/A   Partly Cloudy
11:53 AM 25.0 °F 11.7 °F 12.9 °F 60% 30.45 in 10.0 mi WSW 17.3 mph - N/A   Clear
12:53 PM 27.0 °F 14.3 °F 12.0 °F 53% 30.43 in 10.0 mi WSW 17.3 mph - N/A   Clear
1:53 PM 28.0 °F 14.6 °F 10.0 °F 47% 30.42 in 10.0 mi WSW 20.7 mph 26.5 mph N/A   Clear
2:53 PM 28.9 °F 17.3 °F 10.9 °F 47% 30.41 in 10.0 mi West 16.1 mph 24.2 mph N/A   Clear
3:53 PM 28.0 °F 16.5 °F 12.0 °F 51% 30.41 in 10.0 mi WSW 15.0 mph 19.6 mph N/A   Clear
4:53 PM 27.0 °F 16.1 °F 12.0 °F 53% 30.42 in 10.0 mi SW 12.7 mph - N/A   Clear
5:53 PM 25.0 °F 15.5 °F 12.9 °F 60% 30.43 in 10.0 mi SW 9.2 mph - N/A   Clear
6:53 PM 25.0 °F 14.8 °F 12.9 °F 60% 30.44 in 10.0 mi SW 10.4 mph - N/A   Clear
7:53 PM 26.1 °F 13.1 °F 12.0 °F 55% 30.43 in 10.0 mi SW 17.3 mph - N/A   Overcast
8:53 PM 26.1 °F 13.6 °F 12.9 °F 58% 30.44 in 10.0 mi SW 16.1 mph 21.9 mph N/A   Overcast
9:53 PM 26.1 °F 14.5 °F 12.0 °F 55% 30.43 in 10.0 mi SSW 13.8 mph 19.6 mph N/A   Overcast
10:53 PM 25.0 °F 12.2 °F 12.0 °F 58% 30.43 in 10.0 mi SW 16.1 mph 20.7 mph N/A   Overcast
11:53 PM 24.1 °F 13.7 °F 10.9 °F 57% 30.43 in 10.0 mi SSW 10.4 mph - N/A   Clear